| time (UTC) | temp F | wind direction | speed knots | gust knots | rain 1hr in | rain 24hr in | rain mn in | humidity % | barometer mb |
| 20260505153030 | 51 | 17 | 11.3 | 18.2 | 0.00 | 0.00 | 0.00 | 57 | 1007.8 |
| 20260505151528 | 51 | 17 | 13.9 | 21.7 | 0.00 | 0.00 | 0.00 | 57 | 1007.4 |
| 20260505124514 | 50 | 11 | 13.9 | 20.0 | 0.00 | 0.00 | 0.00 | 58 | 1004.9 |
| 20260505123008 | 50 | 11 | 15.6 | 22.6 | 0.00 | 0.00 | 0.00 | 58 | 1004.4 |
| 20260505121506 | 50 | 11 | 13.0 | 21.7 | 0.00 | 0.00 | 0.00 | 58 | 1004.3 |
| 20260505120004 | 50 | 10 | 14.8 | 20.9 | 0.00 | 0.00 | 0.00 | 58 | 1003.8 |
| 20260505114503 | 50 | 11 | 13.9 | 20.0 | 0.00 | 0.00 | 0.00 | 58 | 1003.7 |
| 20260505113107 | 50 | 10 | 17.4 | 24.3 | 0.00 | 0.00 | 0.00 | 58 | 1003.4 |
| 20260505111558 | 50 | 11 | 17.4 | 24.3 | 0.00 | 0.00 | 0.00 | 58 | 1003.2 |
| 20260505110116 | 50 | 11 | 16.5 | 21.7 | 0.00 | 0.00 | 0.00 | 58 | 1003.4 |
| 20260505101550 | 51 | 9 | 14.8 | 23.5 | 0.00 | 0.00 | 0.00 | 60 | 1003.1 |
| 20260505100048 | 52 | 11 | 17.4 | 27.8 | 0.00 | 0.00 | 0.00 | 60 | 1002.8 |
| 20260505094543 | 52 | 11 | 15.6 | 25.2 | 0.00 | 0.00 | 0.00 | 61 | 1002.1 |
| 20260505093039 | 53 | 9 | 13.0 | 20.0 | 0.00 | 0.00 | 0.00 | 63 | 1002.0 |
| 20260505091537 | 54 | 11 | 13.9 | 23.5 | 0.00 | 0.00 | 0.00 | 64 | 1001.6 |
| 20260505090037 | 54 | 9 | 15.6 | 21.7 | 0.00 | 0.00 | 0.00 | 64 | 1000.8 |
| 20260505084529 | 55 | 10 | 13.9 | 23.5 | 0.00 | 0.00 | 0.00 | 65 | 1000.6 |
| 20260505083024 | 56 | 11 | 14.8 | 23.5 | 0.00 | 0.00 | 0.00 | 63 | 1000.4 |
| 20260505081529 | 57 | 13 | 13.9 | 19.1 | 0.00 | 0.00 | 0.00 | 59 | 999.9 |
| 20260505080019 | 59 | 11 | 13.9 | 22.6 | 0.00 | 0.00 | 0.00 | 54 | 999.9 |
| 20260505074512 | 62 | 11 | 10.4 | 20.0 | 0.00 | 0.00 | 0.00 | 40 | 999.9 |
| 20260505073010 | 63 | 26 | 13.0 | 17.4 | 0.00 | 0.00 | 0.00 | 32 | 999.5 |
| 20260505071515 | 64 | 26 | 13.9 | 19.1 | 0.00 | 0.00 | 0.00 | 28 | 999.2 |
| 20260505070005 | 64 | 26 | 12.2 | 20.0 | 0.00 | 0.00 | 0.00 | 27 | 999.1 |
| 20260505064503 | 64 | 27 | 12.2 | 21.7 | 0.00 | 0.00 | 0.00 | 27 | 998.9 |
| 20260505063100 | 65 | 27 | 10.4 | 13.9 | 0.00 | 0.00 | 0.00 | 26 | 998.6 |
| 20260505061602 | 66 | 30 | 10.4 | 13.9 | 0.00 | 0.00 | 0.00 | 25 | 998.5 |
| 20260505060058 | 67 | 29 | 10.4 | 15.6 | 0.00 | 0.00 | 0.00 | 24 | 998.4 |
| 20260505054559 | 68 | 28 | 12.2 | 18.2 | 0.00 | 0.00 | 0.00 | 22 | 998.4 |
| 20260505053103 | 68 | 28 | 13.0 | 18.2 | 0.00 | 0.00 | 0.00 | 22 | 998.5 |
| 20260505051551 | 65 | 24 | 11.3 | 14.8 | 0.00 | 0.00 | 0.00 | 25 | 998.5 |
| 20260505041549 | 65 | 26 | 8.7 | 10.4 | 0.00 | 0.00 | 0.00 | 27 | 998.4 |
| 20260505040046 | 64 | 25 | 8.7 | 11.3 | 0.00 | 0.00 | 0.00 | 27 | 998.6 |
| 20260505034545 | 67 | 23 | 10.4 | 14.8 | 0.00 | 0.00 | 0.00 | 25 | 998.5 |
| 20260505033047 | 68 | 23 | 10.4 | 14.8 | 0.00 | 0.00 | 0.00 | 23 | 998.5 |
| 20260505031544 | 65 | 19 | 7.0 | 9.6 | 0.00 | 0.00 | 0.00 | 26 | 998.3 |
| 20260505030043 | 64 | 19 | 4.3 | 7.0 | 0.00 | 0.00 | 0.00 | 29 | 998.0 |
| 20260505024544 | 65 | 19 | 6.1 | 7.8 | 0.00 | 0.00 | 0.00 | 29 | 997.8 |
| 20260505023042 | 65 | 19 | 5.2 | 7.8 | 0.00 | 0.00 | 0.00 | 30 | 997.8 |
| 20260505021540 | 67 | 360 | 4.3 | 7.0 | 0.00 | 0.00 | 0.00 | 28 | 997.7 |
| 20260505020041 | 69 | 15 | 7.0 | 8.7 | 0.00 | 0.00 | 0.00 | 27 | 997.6 |
| 20260505014540 | 71 | 14 | 5.2 | 7.0 | 0.00 | 0.00 | 0.00 | 26 | 997.6 |
| 20260505013039 | 73 | 14 | 5.2 | 7.0 | 0.00 | 0.00 | 0.00 | 23 | 997.6 |
| 20260505011549 | 76 | 14 | 7.0 | 9.6 | 0.00 | 0.00 | 0.00 | 21 | 997.7 |
| 20260505010039 | 78 | 15 | 8.7 | 12.2 | 0.00 | 0.00 | 0.00 | 19 | 997.6 |
| 20260505004536 | 80 | 18 | 10.4 | 14.8 | 0.00 | 0.00 | 0.00 | 20 | 997.7 |
| 20260505003033 | 81 | 17 | 13.0 | 17.4 | 0.00 | 0.00 | 0.00 | 20 | 997.8 |
| 20260505001532 | 81 | 17 | 13.9 | 18.2 | 0.00 | 0.00 | 0.00 | 22 | 998.0 |
| 20260505000032 | 82 | 20 | 12.2 | 20.0 | 0.00 | 0.00 | 0.00 | 22 | 998.1 |
| 20260504234528 | 82 | 224 | 13.0 | 17.4 | 0.00 | 0.00 | 0.00 | 21 | 998.3 |
| 20260504233027 | 82 | 244 | 14.8 | 20.0 | 0.00 | 0.00 | 0.00 | 21 | 998.6 |
| 20260504231526 | 83 | 245 | 11.3 | 17.4 | 0.00 | 0.00 | 0.00 | 21 | 998.6 |
| 20260504230027 | 83 | 262 | 11.3 | 14.8 | 0.00 | 0.00 | 0.00 | 21 | 998.7 |
| 20260504224522 | 83 | 267 | 12.2 | 21.7 | 0.00 | 0.00 | 0.00 | 21 | 999.0 |
| 20260504223020 | 82 | 215 | 11.3 | 20.9 | 0.00 | 0.00 | 0.00 | 21 | 998.9 |
| 20260504221522 | 82 | 202 | 8.7 | 13.9 | 0.00 | 0.00 | 0.00 | 22 | 999.1 |
| 20260504220021 | 82 | 243 | 14.8 | 21.7 | 0.00 | 0.00 | 0.00 | 21 | 999.4 |
| 20260504214517 | 83 | 267 | 13.0 | 26.1 | 0.00 | 0.00 | 0.00 | 20 | 999.6 |
| 20260504213014 | 83 | 255 | 16.5 | 24.3 | 0.00 | 0.00 | 0.00 | 19 | 999.5 |
| 20260504211512 | 83 | 246 | 12.2 | 22.6 | 0.00 | 0.00 | 0.00 | 18 | 999.8 |
| 20260504210010 | 84 | 271 | 13.0 | 24.3 | 0.00 | 0.00 | 0.00 | 19 | 1000.0 |
| 20260504204508 | 83 | 242 | 13.9 | 19.1 | 0.00 | 0.00 | 0.00 | 21 | 1000.1 |
| 20260504203010 | 82 | 267 | 14.8 | 27.8 | 0.00 | 0.00 | 0.00 | 22 | 1000.5 |
| 20260504201505 | 82 | 291 | 13.9 | 26.9 | 0.00 | 0.00 | 0.00 | 22 | 1000.8 |
| 20260504194600 | 81 | 248 | 20.0 | 25.2 | 0.00 | 0.00 | 0.00 | 22 | 1001.2 |
| 20260504193100 | 81 | 246 | 18.2 | 26.1 | 0.00 | 0.00 | 0.00 | 23 | 1001.6 |
| 20260504191600 | 81 | 229 | 17.4 | 27.8 | 0.00 | 0.00 | 0.00 | 23 | 1001.6 |
| 20260504190109 | 81 | 275 | 14.8 | 23.5 | 0.00 | 0.00 | 0.00 | 24 | 1001.6 |
| 20260504184614 | 80 | 255 | 18.2 | 26.1 | 0.00 | 0.00 | 0.00 | 24 | 1001.7 |
| 20260504183054 | 80 | 267 | 16.5 | 27.8 | 0.00 | 0.00 | 0.00 | 24 | 1001.9 |
| 20260504181552 | 80 | 279 | 15.6 | 31.3 | 0.00 | 0.00 | 0.00 | 24 | 1002.1 |
| 20260504180051 | 80 | 250 | 18.2 | 28.7 | 0.00 | 0.00 | 0.00 | 24 | 1002.5 |
| 20260504174548 | 81 | 260 | 14.8 | 25.2 | 0.00 | 0.00 | 0.00 | 24 | 1002.6 |
| 20260504173049 | 81 | 286 | 15.6 | 24.3 | 0.00 | 0.00 | 0.00 | 24 | 1002.9 |
| 20260504171544 | 80 | 263 | 18.2 | 25.2 | 0.00 | 0.00 | 0.00 | 23 | 1003.0 |